Regional Weather Roundup
Issued by NWS Wakefield, VA

Home | Current Version | Previous Version | Graphics & Text | Print | Product List | Glossary On
Versions: 1 2 3 4 5 6 7 8 9 10 11 12 13 14 15 16 17 18 19 20 21 22 23 24 25 26 27 28 29 30 31 32 33 34 35 36 37 38 39 40 41 42 43 44 45 46 47 48 49 50
000
ASUS41 KAKQ 221715
RWRAKQ

REGIONAL WEATHER ROUNDUP
NATIONAL WEATHER SERVICE WAKEFIELD VA
1200 PM EST WED NOV 22 2017

Note: "fair" indicates few or no clouds below 12,000 feet with no
significant weather and/or obstructions to visibility. * = Denotes
station may not report precipitation (e.g., rain,snow,etc.),
thunder or fog.

VAZ042-051-052>054-056-221800-
NORTHERN VIRGINIA

CITY           SKY/WX    TMP DP  RH WIND       PRES   REMARKS
WASH NATIONAL  MOSUNNY   56  33  42 NW24G33   30.01R
DULLES         MOSUNNY   50  31  48 NW22G33   30.03R
FORT BELVOIR   SUNNY     56  31  39 NW23G30   30.01R
QUANTICO       NOT AVBL
FREDERICKSBRG* MOSUNNY   58  38  47 NW14G23   29.99S
STAFFORD*      SUNNY     55  35  46 NW17G23   30.05R
WARRENTON      NOT AVBL
CULPEPER*      SUNNY     56  31  39 NW9       30.03R
MANASSAS*      MOSUNNY   54  31  41 NW20G32   30.03S
LEESBURG*      PTSUNNY   52  34  50 NW23G30   30.05S
WINCHESTER     PTSUNNY   45  28  53 NW20G31   30.06S
FRONT ROYAL*   SUNNY     48  30  49 NW13      30.04S
LURAY*         MOSUNNY   50  30  46 W6G24     30.05S
$$

VAZ048-049-060>072-079>083-221800-
CENTRAL AND SOUTH CENTRAL VIRGINIA

CITY           SKY/WX    TMP DP  RH WIND       PRES   REMARKS
RICHMOND       MOSUNNY   62  39  42 NW18      29.98S
CHESTERFIELD*  NOT AVBL
PETERSBURG*    SUNNY     61 -26   2 NW12G21   29.98F
HANOVER        SUNNY     60  40  47 N8        29.99F
TAPPAHANNOCK*    N/A    N/A N/A N/A MISG        N/A
QUINTON*       FAIR      60  42  52 N12G21    29.97S
CHARLOTTSVILLE SUNNY     58  30  34 NW14G22   30.01S
GORDONSVILLE*  SUNNY     58  32  37 NW6       30.00S
ORANGE*        SUNNY     55  32  41 NW12      30.01S
LOUISA*        SUNNY     59  32  36 N15       30.04S
BUMPASS*       FAIR      59  30  34 W10G20    29.99S
FARMVILLE*     SUNNY     61  38  43 N6        29.99F
CREWE*         FAIR      60  38  44 NW8       30.00F
FORT PICKETT*  NOT AVBL
CHASE CITY*    FAIR      59  35  39 NW9       30.01F
CLARKSVILLE*   FAIR      59  37  44 NW10G16   30.01F
SOUTH HILL*    SUNNY     61  41  48 NW8       30.04F
LAWRENCEVILLE* FAIR      62  43  51 NW9G17    29.98F
EMPORIA*       MOSUNNY   61  45  55 NW10G18   29.99S
$$

VAZ088>098-221800-
SOUTHEAST VIRGINIA

CITY           SKY/WX    TMP DP  RH WIND       PRES   REMARKS
NORFOLK        CLOUDY    59  51  75 N14G20    29.94F
VIRGINIA BEACH PTSUNNY   60  50  69 N20       29.93F
NORFOLK NAVAL  PTSUNNY   60  46  59 N14       29.96F
WEST POINT*    SUNNY     61  40  46 N7G17     29.98S
SALUDA*        FAIR      59  42  53 NW12G22   29.96R
NEWPORT NEWS   CLOUDY    61  47  59 NW16G25   29.96S
LANGLEY AFB    PTSUNNY   59  46  62 N12       29.95S
FORT EUSTIS    MOSUNNY   60  48  63 N12       29.93S
WILLIAMSBURG*  MOSUNNY   66  52  59 N10       29.97S
HR EXEC AP*    NOT AVBL
FRANKLIN*      MOSUNNY   61  47  60 N10G16    29.96F
US460-WAKEFLD  MOSUNNY   61  47  59 N12G23    29.97S
$$

VAZ020-022-025-037-045-221800-
WEST CENTRAL AND SOUTHWEST VIRGINIA

CITY           SKY/WX    TMP DP  RH WIND       PRES   REMARKS
STAUNTON*      SUNNY     50  26  39 NW23      30.04F
WAYNESBORO*    SUNNY     52  29  41 NW12G17   30.03S
HOT SPRINGS VA MOSUNNY   39  25  56 NW15G21   30.02F
LYNCHBURG      SUNNY     58  28  32 VRB7      30.02F
DANVILLE       SUNNY     60  37  42 N13G20    30.03F
SOUTH BOSTON*  FAIR      60  33  35 NW10G20   30.03F
MARTINSVILLE   SUNNY     56  31  39 N21G26    30.08F
ROANOKE        MOSUNNY   52  31  44 NW14      30.09F
BLACKSBURG     PTSUNNY   48  31  52 W8        30.10F
DUBLIN*        SUNNY     49  32  51 W10       30.10F
MARION*        SUNNY     45  28  50 NW12G20   30.12F
HILLSVILLE*    SUNNY     44  27  49 N22       30.05F
RICHLANDS*     PTSUNNY   42  13  30 NW6       30.13F
WISE*          PTSUNNY   41  32  70 W5        30.16F
ABINGDON*      SUNNY     46  32  59 NE3       30.14F
$$

MDZ021>025-VAZ099-100-221800-
SOUTHERN MARYLAND AND THE DELMARVA PENINSULA

CITY           SKY/WX    TMP DP  RH WIND       PRES   REMARKS
PATUXENT RIVER MOSUNNY   59  39  47 NW21      29.95R
BAY BRIDGE APT SUNNY     57  39  51 NW20G25   29.96R
LEONARDTOWN    SUNNY     59  34  38 NW12G25   29.97S
DOVER          SUNNY     58  40  52 NW21      29.91S
GEORGETOWN     PTSUNNY   59  41  51 NW9G17    29.92S
EASTON         MOSUNNY   59  37  44 N15G24    29.98R
CAMBRIDGE      SUNNY     59  39  47 NW14G23   29.94S
SALISBURY      PTSUNNY   57  43  59 NW17G24   29.92S
OCEAN CITY     CLOUDY    57  45  64 NW17      29.92R
WALLOPS ISLAND PTSUNNY   58  42  55 N18G29    29.92S
ACCOMACK*      CLOUDY    58  46  63 NW10G22   29.94S
$$

NCZ012>017-030>032-221800-
NORTH CENTRAL AND EASTERN NORTH CAROLINA

CITY           SKY/WX    TMP DP  RH WIND       PRES   REMARKS
ROANOKE RAPIDS FAIR      63  45  51 NW14G21   29.98F
RALEIGH        MOSUNNY   61  38  42 N9G17     30.02S
ELIZABETH CITY CLOUDY    65  55  70 N16       29.92F
AHOSKIE*       MOSUNNY   61  49  64 NW8       29.96F
EDENTON*       CLOUDY    64  54  68 N13G21    29.94F
CURRITUCK*     PTSUNNY   64  53  67 N13G20    29.93F
KILL DEVIL HLS PTSUNNY   62  56  82 CALM      29.91S
MANTEO         MOSUNNY   61  56  83 N10       29.93S
CAPE HATTERAS  MOSUNNY   62  60  93 NW7       29.90F
TARBORO*       NOT AVBL
GOLDSBORO      SUNNY     67  48  50 NW14G21   29.95F
WASHINGTON     CLOUDY    64  51  61 NW8       29.95F
GREENVILLE     SUNNY     64  46  52 N14G21    29.98F
NEW BERN       CLOUDY    65  54  67 N14       29.95F
WILMINGTON     PTSUNNY   68  55  63 N5        29.97F
$$

VAZ048-221800-
ELSEWHERE

CITY           SKY/WX    TMP DP  RH WIND       PRES   REMARKS
HARRISBURG PA  PTSUNNY   51  31  46 NW22G33   29.99F
BALTIMORE      MOSUNNY   55  34  45 NW21G28   29.98R
ANNAPOLIS      SUNNY     57  38  48 NW17G29   29.96R
ANDREWS AFB    SUNNY     54  33  44 NW21G33   29.98R
PHILADELPHIA   MOSUNNY   57  37  47 NW17G30   29.91F
HENDERSON NC   SUNNY     57  35  43 NW10G17   30.01F
GREENSBORO     MOSUNNY   59  37  44 N8        30.04F
ROCKY MOUNT    SUNNY     64  43  46 NW15G21   29.98F
$$

VAZ100-221800-
MARINE

STATION/POSITION TIME  TEMP    WIND        PRES    WAVE   SWELL
                       AIR SEA DIR/SP/G            HT/PER HT/PER
                 (UTC) (F)     (DEG/KT/KT) (MB)    (FT/S) (FT/S)
BRANDYWINE LGT   1642   53     340/ 16/ 18 1013.2R
CAPE MAY NJ      1648   53 51  330/ 13/ 17 1012.1F
LEWES DE         1648   54 52  330/ 12/ 18 1012.7S
15NM E FENWICK I 1650   56 57  320/ 21/ 27 1012.0F   3/ 6   2/ 6
OCEAN-CITY-INLET 1648   57 54  350/ 17/ 23 1013.1S
WACHAPREAGUE VA  1648   58 52  320/ 10/ 19 1013.5R
THOMAS POINT MD  1700   54 53  300/ 24/ 26   N/A
GOOSES REEF MD   1650   56     330/ 21/ 25 1021.6R
COVE POINT MD    1648   56     340/ 25/ 30 1014.7R
SOLOMONS ISLAND  1648   58 54  320/ 12/ 18 1014.0R
BISHOPS HEAD MD  1648   58 51  330/ 13/ 21 1014.3R
PINEY POINT MD   1648          340/ 21/ 23   N/A
POTOMAC MD       1650   57     330/ 16/ 17 1013.5R
CAMBRIDGE MD     1648   59 51              1014.7R
LEWISETTA VA     1642   58 52  340/ 12/ 18 1014.4R
RAPPAHANNOCK LGT 1648          330/ 13/ 16 1014.6S
STINGRAY PT      1650   58     360/ 17/ 23 1014.4F
YORK RVR RNG VA  1648   56     360/ 18/ 20 1014.6S
YORKTOWN VA      1648   58 54  320/ 18/ 20 1014.3R
JAMESTOWN VA     1650          340/ 16/ 19   N/A
DOMINION TERM VA 1636   59     310/  2/  6 1014.4S
KIPTOPEKE VA     1648      54  350/ 16/ 21   N/A
CAPE HENRY VA    1648   56     340/ 13/ 15   N/A
WILLOUBY STN VA  1636   57     360/ 12/ 13 1014.1F
S CRANEY ISL VA  1648   57     360/ 11/ 13 1014.0S
CAPE HENRY BUOY  1700      56                N/A     5/ 8
1ST LANDING BUOY 1650   55      10/ 10/ 12 1014.1R
CAPE CHARLES BUO 1651      57                N/A     5/ 8
64NM E OF VA BCH 1650   61 62  320/ 21/ 27 1012.2F   5/ 8   5/ 8
DUCK PIER NC     1648   61 60  330/ 16/ 20 1012.5F
44100 DUCK FRF   1645      61                N/A     4/ 8
44056 DUCK FRF   1700      61                N/A     4/ 8
OREGON INLET NC  1636   61 56  300/  8/ 12 1012.9F
HATTERAS NC      1648   59 60  300/ 11/ 12 1012.7F
DIAMOND SHLS NC  1700   63 75  300/ 16/ 21 1013.0
CAPE LOOKOUT NC  1700          340/  7/  8 1014.0F
$$



USA.gov is the U.S. government's official web portal to all federal, state and local government web resources and services.